Temp
-10 -10 -10 -10 -10 -10 -10 -10 -10 -11 -11 -11 -10 -10 -11 -11 -10 -10 -9 -9 -9 -9 -9 -8 -9 -9 -8 -9 -8 -7 -7 -7 -7 -6 -6 -6 -6 -6 -6 -6 -6 -6 -6 -6 -6 -6 -6 -6 -6
-10 -10 -10 -10 -10 -10 -10 -11 -12 -12 -12 -11 -10 -9 -9 -11 -11 -10 -9 -9 -9 -9 -9 -8 -8 -9 -9 -9 -8 -8 -7 -7 -7 -7 -7 -6 -6 -6 -6 -6 -6 -6 -6 -6 -6 -6 -6 -6 -6
-10 -10 -10 -10 -11 -11 -11 -11 -12 -12 -13 -13 -12 -11 -10 -10 -11 -10 -10 -9 -9 -9 -8 -9 -8 -9 -9 -9 -9 -9 -8 -7 -7 -7 -7 -7 -7 -6 -6 -6 -6 -6 -6 -6 -6 -6 -6 -6 -6
-10 -11 -11 -11 -11 -11 -11 -12 -12 -13 -13 -13 -13 -12 -10 -10 -11 -10 -10 -10 -10 -10 -10 -9 -9 -9 -9 -9 -9 -9 -8 -8 -7 -7 -8 -8 -7 -7 -7 -6 -6 -6 -6 -6 -6 -6 -6 -6 -6
-11 -11 -11 -11 -11 -11 -11 -12 -13 -14 -14 -14 -14 -13 -12 -11 -10 -11 -11 -11 -10 -10 -10 -10 -10 -9 -9 -9 -9 -9 -8 -8 -7 -7 -7 -8 -8 -7 -7 -6 -6 -6 -6 -6 -6 -6 -6 -7 -7
-10 -10 -11 -11 -12 -12 -13 -13 -14 -15 -15 -15 -16 -15 -13 -12 -11 -11 -11 -11 -10 -10 -10 -10 -10 -10 -10 -9 -10 -9 -9 -8 -8 -7 -7 -8 -8 -8 -7 -6 -6 -6 -7 -7 -6 -6 -6 -7 -7
-10 -10 -11 -11 -11 -12 -12 -14 -15 -16 -16 -17 -17 -17 -14 -13 -13 -12 -12 -12 -11 -11 -10 -10 -10 -10 -10 -9 -10 -10 -9 -9 -8 -7 -7 -7 -8 -8 -8 -7 -7 -6 -7 -7 -7 -6 -7 -7 -7
-11 -11 -11 -12 -12 -13 -14 -14 -16 -17 -18 -19 -19 -18 -16 -15 -13 -13 -13 -12 -12 -11 -11 -10 -10 -10 -10 -9 -9 -10 -10 -9 -9 -8 -7 -7 -8 -8 -8 -8 -7 -7 -7 -7 -7 -7 -7 -7 -7
-11 -11 -11 -12 -13 -13 -15 -15 -17 -18 -19 -20 -21 -20 -19 -17 -15 -14 -14 -14 -13 -11 -11 -10 -11 -10 -10 -9 -9 -9 -10 -10 -9 -8 -8 -7 -8 -8 -8 -8 -8 -7 -7 -7 -7 -7 -7 -7 -7
-11 -11 -12 -12 -13 -14 -16 -16 -17 -17 -21 -22 -21 -21 -20 -18 -17 -14 -14 -15 -14 -13 -12 -11 -11 -10 -9 -9 -10 -9 -8 -10 -9 -9 -8 -8 -8 -8 -8 -9 -8 -8 -8 -8 -7 -7 -7 -7 -7
-11 -11 -12 -13 -14 -14 -16 -16 -18 -18 -20 -22 -23 -21 -20 -19 -18 -17 -15 -15 -15 -13 -13 -12 -11 -11 -10 -10 -10 -9 -10 -9 -9 -9 -9 -8 -8 -8 -8 -8 -8 -8 -8 -8 -8 -7 -7 -7 -7
-12 -12 -12 -13 -14 -15 -17 -16 -18 -18 -19 -22 -23 -22 -21 -20 -19 -18 -17 -17 -15 -15 -14 -13 -12 -11 -11 -10 -10 -9 -9 -9 -9 -9 -9 -9 -8 -8 -8 -8 -9 -9 -8 -8 -8 -7 -7 -7 -7
-12 -13 -12 -13 -14 -15 -17 -17 -19 -19 -20 -22 -23 -22 -22 -21 -20 -19 -19 -18 -17 -16 -14 -13 -13 -10 -11 -11 -10 -10 -10 -11 -9 -10 -9 -9 -9 -8 -8 -8 -8 -9 -9 -8 -8 -8 -7 -7 -7
-12 -13 -13 -13 -15 -16 -17 -18 -19 -19 -19 -22 -23 -23 -22 -21 -21 -19 -19 -18 -18 -17 -14 -14 -13 -12 -12 -11 -10 -10 -9 -10 -10 -9 -10 -9 -9 -9 -8 -8 -8 -9 -9 -9 -8 -8 -8 -7 -7
-12 -13 -14 -14 -15 -16 -17 -19 -19 -19 -19 -22 -23 -23 -23 -22 -21 -20 -19 -19 -18 -16 -15 -14 -12 -11 -12 -11 -11 -11 -11 -10 -9 -9 -9 -9 -9 -9 -9 -9 -9 -9 -9 -9 -9 -9 -8 -8 -7
-13 -13 -14 -15 -15 -17 -16 -18 -20 -20 -19 -21 -23 -24 -24 -23 -22 -21 -20 -18 -17 -16 -15 -15 -13 -13 -12 -11 -11 -11 -11 -11 -10 -9 -9 -10 -10 -9 -10 -10 -9 -9 -9 -9 -9 -9 -9 -9 -8
-13 -14 -14 -15 -15 -16 -17 -18 -19 -20 -20 -21 -23 -24 -25 -24 -23 -21 -20 -20 -17 -16 -17 -16 -14 -13 -11 -11 -11 -11 -12 -11 -9 -10 -8 -10 -10 -10 -10 -10 -10 -9 -9 -9 -9 -9 -9 -9 -9
-13 -14 -15 -16 -15 -17 -18 -18 -19 -19 -20 -20 -23 -24 -25 -24 -23 -21 -21 -20 -19 -17 -16 -16 -14 -14 -13 -11 -11 -11 -12 -12 -11 -10 -10 -9 -9 -10 -10 -10 -10 -10 -9 -9 -9 -9 -9 -9 -9
-14 -14 -14 -17 -16 -16 -18 -18 -19 -19 -20 -21 -22 -25 -25 -26 -25 -23 -21 -20 -20 -18 -17 -15 -16 -15 -14 -13 -12 -10 -12 -11 -12 -11 -10 -8 -10 -10 -10 -10 -11 -10 -10 -10 -9 -9 -9 -9 -9
-14 -15 -15 -16 -17 -16 -18 -19 -20 -20 -20 -21 -21 -23 -25 -26 -26 -26 -24 -22 -20 -19 -18 -16 -16 -15 -14 -14 -13 -12 -12 -12 -12 -11 -10 -10 -8 -10 -10 -10 -10 -10 -10 -10 -10 -10 -9 -9 -9
-15 -15 -15 -16 -17 -19 -18 -18 -19 -20 -20 -21 -21 -22 -25 -26 -27 -26 -25 -25 -22 -20 -18 -17 -16 -15 -15 -14 -14 -13 -13 -12 -11 -11 -11 -11 -10 -10 -9 -11 -10 -10 -10 -10 -10 -10 -9 -9 -9
-15 -15 -16 -17 -17 -18 -18 -18 -20 -20 -21 -21 -21 -22 -24 -25 -26 -26 -26 -25 -24 -21 -20 -17 -17 -16 -15 -15 -14 -13 -13 -12 -12 -12 -12 -11 -10 -10 -10 -10 -10 -10 -10 -11 -11 -11 -10 -10 -10
-15 -16 -16 -17 -18 -18 -19 -19 -20 -20 -21 -22 -22 -22 -23 -25 -26 -26 -27 -27 -26 -22 -20 -19 -17 -16 -16 -14 -15 -14 -14 -12 -12 -12 -11 -12 -11 -11 -10 -10 -10 -10 -10 -11 -11 -11 -10 -10 -10
-15 -16 -16 -16 -17 -18 -19 -20 -20 -20 -21 -22 -22 -22 -22 -25 -26 -26 -27 -27 -27 -25 -21 -20 -18 -17 -16 -15 -14 -14 -13 -13 -13 -12 -12 -12 -12 -11 -11 -11 -11 -10 -10 -10 -11 -11 -11 -11 -10
-16 -16 -17 -16 -17 -18 -20 -20 -21 -21 -21 -22 -22 -22 -22 -23 -26 -27 -27 -27 -27 -26 -24 -20 -20 -18 -16 -15 -15 -15 -14 -13 -13 -13 -12 -12 -12 -12 -12 -11 -10 -11 -10 -10 -11 -10 -10 -10 -10
-16 -17 -19 -18 -18 -17 -20 -20 -21 -21 -21 -22 -22 -22 -23 -23 -25 -27 -27 -27 -27 -27 -26 -23 -20 -19 -17 -15 -15 -15 -14 -14 -13 -13 -13 -13 -12 -12 -12 -11 -11 -11 -11 -11 -10 -10 -10 -10 -10
-16 -17 -18 -19 -18 -17 -18 -20 -21 -21 -21 -22 -23 -23 -23 -23 -23 -26 -27 -27 -27 -27 -27 -25 -21 -20 -18 -16 -15 -15 -15 -14 -13 -14 -13 -13 -13 -13 -12 -13 -12 -12 -11 -11 -11 -11 -11 -10 -10
-18 -18 -19 -20 -20 -19 -18 -19 -22 -22 -21 -22 -23 -23 -23 -23 -23 -25 -27 -27 -27 -27 -27 -26 -23 -20 -19 -17 -16 -15 -14 -14 -14 -14 -14 -14 -13 -13 -12 -12 -12 -12 -11 -11 -11 -11 -11 -11 -11
-18 -18 -19 -20 -20 -21 -19 -18 -23 -22 -22 -22 -23 -23 -24 -23 -23 -24 -26 -27 -27 -27 -27 -27 -26 -22 -20 -17 -17 -16 -15 -15 -14 -15 -14 -14 -14 -13 -13 -13 -13 -12 -11 -11 -11 -11 -12 -11 -11
-18 -19 -19 -21 -20 -21 -21 -18 -23 -23 -22 -23 -23 -24 -24 -24 -24 -24 -26 -27 -27 -28 -28 -28 -27 -24 -21 -19 -17 -17 -16 -15 -14 -15 -14 -15 -14 -13 -13 -13 -13 -13 -12 -11 -11 -11 -10 -11 -11
Height
5797 5795 5794 5794 5793 5789 5787 5785 5783 5785 5791 5794 5796 5798 5801 5806 5809 5813 5814 5816 5819 5820 5822 5825 5827 5834 5840 5845 5849 5853 5856 5859 5861 5863 5867 5869 5872 5874 5878 5879 5881 5884 5886 5889 5890 5890 5890 5888 5888
5792 5790 5789 5787 5785 5780 5778 5777 5773 5773 5775 5778 5785 5787 5789 5796 5799 5804 5805 5811 5813 5814 5818 5821 5822 5826 5833 5839 5844 5848 5851 5854 5858 5859 5863 5867 5871 5874 5876 5879 5880 5883 5886 5888 5889 5892 5891 5890 5890
5786 5784 5782 5778 5774 5771 5769 5767 5763 5761 5755 5761 5769 5774 5774 5783 5789 5794 5800 5803 5807 5809 5811 5816 5818 5820 5826 5832 5837 5842 5846 5849 5853 5856 5859 5864 5868 5872 5876 5878 5880 5881 5884 5887 5889 5891 5892 5891 5892
5780 5778 5776 5771 5765 5760 5755 5753 5751 5747 5740 5742 5751 5758 5763 5766 5774 5781 5790 5796 5799 5802 5805 5808 5811 5816 5820 5825 5830 5835 5840 5844 5848 5851 5855 5860 5865 5869 5873 5876 5879 5881 5883 5886 5888 5891 5892 5893 5893
5777 5773 5767 5763 5757 5749 5744 5738 5736 5732 5721 5722 5727 5738 5744 5749 5758 5765 5773 5784 5789 5794 5796 5802 5804 5809 5813 5818 5823 5829 5833 5839 5842 5846 5851 5855 5860 5865 5870 5873 5878 5881 5882 5885 5887 5890 5892 5893 5893
5770 5765 5760 5754 5749 5739 5731 5726 5719 5713 5706 5703 5703 5713 5727 5731 5741 5749 5755 5770 5776 5784 5787 5792 5796 5800 5804 5809 5816 5821 5826 5832 5836 5840 5846 5850 5855 5861 5865 5870 5874 5878 5881 5883 5886 5889 5892 5892 5894
5762 5757 5752 5746 5740 5731 5723 5715 5703 5696 5687 5685 5685 5690 5707 5712 5721 5729 5739 5751 5762 5771 5777 5782 5787 5792 5799 5798 5806 5813 5819 5825 5830 5835 5839 5844 5850 5856 5861 5866 5870 5875 5879 5882 5884 5887 5890 5892 5894
5754 5749 5742 5738 5729 5720 5712 5704 5691 5677 5670 5665 5666 5668 5684 5692 5697 5709 5721 5734 5746 5757 5765 5771 5776 5782 5787 5794 5795 5802 5810 5817 5823 5828 5832 5838 5844 5850 5856 5862 5867 5871 5875 5879 5882 5885 5888 5890 5893
5746 5740 5733 5725 5716 5707 5699 5692 5679 5664 5650 5644 5650 5653 5664 5674 5676 5691 5702 5716 5730 5741 5749 5758 5765 5770 5781 5779 5790 5794 5798 5807 5813 5819 5824 5830 5836 5843 5850 5857 5862 5868 5872 5875 5878 5882 5885 5889 5891
5737 5730 5722 5714 5704 5696 5686 5675 5664 5648 5634 5629 5628 5633 5644 5654 5660 5669 5684 5697 5711 5727 5734 5741 5752 5760 5763 5768 5783 5791 5794 5800 5806 5810 5817 5823 5829 5836 5843 5849 5856 5863 5869 5872 5875 5879 5882 5885 5888
5727 5719 5710 5700 5691 5682 5673 5660 5647 5633 5624 5616 5614 5622 5627 5639 5644 5652 5665 5679 5692 5708 5718 5728 5737 5749 5755 5764 5772 5779 5786 5792 5799 5804 5810 5817 5823 5829 5836 5842 5850 5859 5865 5869 5870 5874 5878 5881 5885
5717 5708 5699 5690 5680 5669 5660 5647 5638 5619 5608 5602 5601 5607 5618 5625 5630 5635 5648 5664 5678 5692 5703 5711 5723 5735 5746 5754 5759 5768 5777 5783 5789 5798 5803 5810 5817 5823 5830 5838 5845 5853 5861 5863 5865 5869 5873 5878 5882
5708 5699 5689 5679 5669 5658 5649 5636 5625 5612 5600 5596 5596 5599 5603 5610 5615 5618 5629 5642 5658 5673 5685 5696 5707 5719 5728 5740 5749 5762 5768 5776 5780 5788 5795 5803 5810 5817 5824 5832 5839 5845 5853 5857 5860 5863 5868 5874 5878
5700 5691 5681 5669 5659 5648 5640 5629 5612 5603 5595 5588 5588 5589 5592 5598 5599 5600 5612 5629 5644 5657 5670 5683 5694 5704 5718 5726 5738 5744 5743 5761 5775 5779 5786 5794 5802 5809 5817 5824 5831 5837 5844 5850 5853 5856 5861 5867 5873
5692 5683 5672 5659 5651 5640 5628 5620 5604 5597 5589 5582 5582 5582 5582 5581 5590 5595 5604 5617 5631 5645 5651 5666 5677 5688 5703 5713 5721 5733 5741 5751 5764 5770 5775 5783 5791 5799 5807 5815 5822 5829 5834 5842 5846 5850 5854 5860 5866
5684 5676 5665 5653 5643 5634 5621 5616 5597 5589 5582 5576 5574 5575 5575 5576 5579 5583 5590 5601 5618 5629 5642 5653 5664 5680 5688 5700 5710 5720 5727 5734 5747 5763 5768 5774 5781 5789 5796 5805 5814 5820 5825 5834 5840 5843 5848 5853 5859
5676 5667 5658 5648 5635 5626 5616 5610 5598 5585 5577 5569 5563 5564 5563 5561 5563 5569 5578 5587 5600 5613 5624 5637 5650 5662 5671 5686 5698 5704 5714 5726 5737 5749 5744 5762 5770 5778 5786 5795 5803 5810 5816 5826 5834 5838 5841 5846 5851
5666 5658 5648 5640 5630 5618 5608 5600 5592 5580 5571 5564 5556 5553 5552 5547 5550 5557 5562 5574 5585 5594 5606 5616 5630 5645 5657 5669 5680 5692 5701 5713 5720 5730 5747 5748 5763 5768 5776 5785 5792 5797 5804 5815 5825 5832 5836 5839 5845
5658 5649 5638 5631 5621 5611 5600 5593 5585 5576 5564 5556 5548 5545 5543 5540 5539 5542 5547 5555 5566 5579 5587 5596 5606 5621 5638 5652 5667 5677 5687 5699 5711 5724 5732 5737 5752 5757 5765 5775 5782 5788 5793 5804 5815 5822 5828 5833 5838
5649 5641 5631 5622 5614 5602 5594 5589 5575 5567 5559 5549 5542 5536 5535 5532 5531 5531 5533 5536 5544 5555 5572 5583 5591 5604 5617 5636 5650 5660 5675 5688 5699 5707 5714 5724 5731 5743 5753 5763 5772 5779 5785 5794 5803 5812 5820 5827 5832
5639 5631 5623 5613 5606 5599 5586 5585 5570 5561 5552 5544 5535 5529 5526 5524 5522 5522 5523 5523 5527 5536 5549 5562 5577 5591 5599 5615 5631 5646 5663 5676 5684 5694 5701 5705 5710 5728 5745 5753 5762 5769 5776 5785 5796 5805 5813 5819 5824
5631 5622 5614 5606 5598 5589 5576 5570 5561 5553 5545 5538 5531 5524 5518 5516 5514 5512 5512 5512 5513 5518 5530 5542 5557 5571 5585 5597 5613 5629 5646 5658 5670 5681 5688 5698 5710 5711 5723 5730 5741 5756 5765 5774 5784 5794 5801 5807 5814
5622 5612 5604 5597 5588 5580 5569 5559 5552 5545 5538 5531 5524 5518 5510 5506 5506 5503 5502 5501 5500 5502 5512 5524 5538 5553 5569 5582 5596 5611 5629 5642 5656 5668 5679 5691 5700 5702 5710 5720 5730 5744 5754 5764 5774 5782 5789 5798 5804
5614 5604 5595 5587 5578 5571 5560 5552 5548 5537 5531 5524 5517 5509 5502 5496 5495 5494 5492 5491 5488 5486 5493 5506 5520 5534 5551 5566 5580 5595 5610 5626 5640 5653 5662 5676 5687 5692 5703 5709 5718 5724 5741 5753 5763 5772 5780 5789 5796
5607 5595 5586 5576 5565 5560 5553 5544 5538 5528 5522 5516 5510 5502 5494 5488 5484 5484 5482 5481 5477 5474 5476 5486 5499 5514 5532 5549 5564 5578 5593 5609 5624 5636 5650 5663 5674 5681 5693 5702 5706 5717 5725 5739 5754 5763 5774 5781 5785
5597 5587 5577 5565 5558 5551 5546 5537 5530 5521 5515 5508 5502 5495 5487 5479 5473 5471 5472 5470 5468 5464 5462 5467 5480 5494 5509 5527 5544 5559 5576 5589 5607 5621 5636 5650 5662 5672 5681 5689 5699 5704 5714 5727 5731 5742 5755 5764 5771
5586 5579 5567 5558 5549 5539 5535 5532 5524 5513 5507 5499 5491 5485 5478 5471 5463 5459 5458 5459 5458 5454 5450 5452 5462 5475 5487 5503 5523 5541 5558 5574 5592 5606 5620 5636 5649 5661 5672 5679 5688 5697 5708 5717 5723 5736 5744 5753 5758
5576 5570 5557 5548 5538 5530 5522 5521 5513 5504 5497 5491 5484 5477 5468 5461 5454 5448 5446 5446 5446 5442 5439 5438 5445 5457 5469 5481 5501 5521 5541 5557 5574 5588 5606 5622 5635 5649 5665 5665 5674 5683 5695 5706 5718 5724 5734 5744 5752
5565 5558 5547 5539 5531 5520 5510 5512 5500 5494 5488 5481 5474 5467 5460 5452 5443 5438 5434 5434 5433 5431 5428 5427 5430 5438 5451 5464 5480 5502 5521 5539 5556 5573 5589 5603 5619 5633 5645 5653 5661 5670 5683 5696 5707 5719 5727 5736 5743
5554 5547 5538 5527 5521 5511 5501 5504 5493 5484 5478 5470 5463 5457 5451 5443 5434 5427 5424 5422 5419 5419 5417 5417 5418 5422 5433 5446 5463 5484 5500 5518 5540 5556 5570 5587 5602 5617 5629 5642 5650 5657 5671 5684 5695 5705 5716 5723 5733
Wind_Speed
27 29 30 30 37 42 45 49 50 49 47 44 41 42 40 40 37 37 37 35 39 37 35 38 39 36 35 34 34 34 32 31 30 28 25 23 19 18 17 16 16 13 11 11 11 11 14 16 18
28 32 33 33 38 44 49 52 55 55 53 50 50 48 48 43 46 40 40 38 38 41 38 40 40 41 38 36 36 37 36 33 34 31 28 25 22 19 18 18 18 16 14 12 11 11 12 15 16
28 31 35 38 40 45 50 53 56 56 57 54 52 55 55 50 49 51 44 40 41 41 41 39 40 43 42 40 37 39 40 37 36 35 31 28 25 22 20 19 19 18 17 14 13 11 11 13 14
33 34 38 42 43 48 53 54 56 60 58 58 56 58 61 58 53 54 51 46 42 43 41 42 40 43 45 44 42 41 43 41 38 39 35 31 29 27 23 22 20 20 19 17 15 13 12 13 13
35 37 39 45 47 48 55 60 57 59 63 60 55 60 66 66 59 58 58 51 49 45 44 44 43 42 47 47 44 43 45 45 42 41 40 34 33 31 28 26 23 20 20 19 17 14 13 11 12
37 39 42 47 51 52 55 59 62 62 66 61 55 57 66 70 67 63 63 58 56 50 48 47 47 44 46 51 47 46 48 48 46 44 42 39 36 35 33 30 27 24 21 21 20 17 15 12 11
39 41 44 47 52 53 57 62 65 64 67 58 55 54 65 72 73 70 68 63 62 57 53 51 51 50 48 51 51 48 48 50 50 47 46 44 40 37 35 34 31 27 24 23 23 20 17 14 12
42 44 48 50 53 56 55 59 61 67 60 52 52 54 60 74 79 75 72 68 64 63 57 55 55 52 53 55 57 54 49 51 51 51 49 47 45 41 37 35 34 30 29 25 23 22 20 17 14
43 46 49 52 55 57 56 57 58 62 58 51 49 51 51 68 79 79 74 72 68 67 63 60 57 57 55 56 58 60 55 52 54 54 54 51 48 45 41 38 37 34 31 29 27 24 21 20 17
46 49 51 54 56 57 56 59 56 63 50 46 48 50 51 58 79 82 81 75 73 70 68 65 62 60 55 59 51 59 60 54 53 56 56 54 51 48 45 42 40 37 32 30 29 27 25 23 21
47 50 53 57 59 60 57 59 54 60 40 39 50 47 48 52 72 81 83 80 78 72 70 69 68 63 54 68 63 57 59 62 54 55 57 55 54 51 50 47 42 38 34 31 32 31 29 26 24
48 51 55 57 59 61 56 62 51 59 50 38 42 44 46 50 61 77 80 73 81 67 76 73 72 67 70 60 65 46 58 65 61 54 57 57 55 54 51 48 44 39 36 36 35 34 32 29 26
49 49 55 59 60 61 54 57 51 57 49 34 35 41 45 49 58 69 79 79 78 78 77 78 78 69 68 71 62 63 71 62 64 59 55 57 57 55 52 49 47 43 40 41 38 36 35 32 29
52 51 54 59 59 61 57 51 56 59 59 38 30 36 43 48 59 69 77 79 81 81 71 80 78 74 73 67 74 74 52 64 69 61 58 55 56 57 56 52 50 48 46 44 43 41 39 37 33
52 53 54 59 59 58 58 50 54 56 56 46 31 32 39 50 57 65 74 81 80 70 74 90 82 74 75 75 67 69 72 75 63 63 62 61 58 58 57 56 52 51 51 48 47 45 42 39 37
52 54 55 56 58 56 62 50 51 54 54 45 35 31 35 45 57 65 70 82 86 86 84 89 82 87 80 82 75 83 66 69 70 75 65 64 61 60 57 57 55 53 54 52 50 48 45 43 40
53 55 56 56 58 57 59 52 52 53 49 45 36 34 33 42 54 64 70 76 90 92 86 83 89 94 79 77 80 68 80 79 72 64 65 69 61 63 59 56 58 56 57 54 53 50 49 47 44
55 57 57 57 58 54 55 54 50 52 50 48 37 31 28 32 46 61 68 73 87 94 91 93 95 99 96 93 90 64 71 86 63 61 73 69 68 64 63 59 59 61 60 56 54 54 51 49 47
54 56 59 54 55 57 53 53 49 51 48 47 42 33 27 24 29 48 66 73 82 100 95 101 93 99 102 93 94 82 76 87 77 63 62 74 74 68 66 64 61 62 64 57 54 54 55 52 48
56 56 58 57 53 58 53 46 48 50 46 47 44 37 29 28 25 28 50 71 80 91 112 108 103 99 97 92 94 88 77 76 73 77 54 61 66 75 71 68 65 64 64 62 59 52 54 53 51
57 58 59 60 56 48 57 48 48 48 45 45 43 39 35 32 33 30 33 50 78 87 105 112 106 110 107 99 96 97 87 82 76 90 89 87 40 63 77 69 69 66 64 60 56 56 52 49 49
58 60 60 59 58 53 58 55 48 47 44 44 43 40 37 38 37 36 34 34 58 86 94 121 109 108 111 105 96 98 97 93 81 80 74 71 54 48 63 79 71 70 67 63 60 55 55 56 55
59 61 61 60 58 53 52 54 49 49 45 43 43 42 36 35 37 40 38 36 40 76 93 107 114 116 109 112 102 95 96 96 93 87 86 87 81 76 47 81 77 80 70 67 62 61 58 55 56
59 63 62 63 61 58 55 52 49 49 45 44 43 44 39 34 35 38 40 40 42 48 88 97 112 120 113 106 101 100 101 103 95 100 82 92 78 73 60 75 66 75 73 73 71 65 59 54 55
58 62 63 66 63 60 53 53 48 49 46 45 44 43 42 35 36 34 37 37 37 39 62 96 100 115 118 113 99 103 104 103 106 102 93 88 85 69 77 57 62 75 70 64 70 61 63 58 60
57 62 60 63 63 64 54 52 47 50 47 46 45 44 43 40 35 37 35 39 39 39 47 79 100 103 123 124 109 105 112 92 96 96 96 85 89 87 79 82 63 53 57 82 63 65 65 66 57
58 60 62 61 64 65 62 54 48 51 47 45 45 45 44 42 37 38 39 38 41 41 41 60 95 102 123 130 113 110 103 96 102 100 99 93 80 80 89 71 79 67 55 74 54 61 65 58 57
57 59 61 62 62 65 66 57 44 49 48 45 45 44 45 43 41 33 39 39 40 41 43 47 77 105 115 129 126 111 108 100 102 103 102 105 84 86 62 45 60 64 62 66 67 57 56 60 47
57 59 60 61 61 62 67 59 48 48 48 47 46 45 43 44 42 36 34 38 36 38 41 42 57 92 107 134 129 123 110 110 97 101 104 100 94 78 95 63 52 68 72 66 64 64 61 62 61
58 58 61 60 61 62 61 59 48 48 48 47 47 47 43 44 43 40 34 35 36 35 37 42 44 70 107 119 131 124 125 113 115 98 96 95 96 87 80 89 74 61 71 66 64 57 50 50 57
Wind_Direction
334 329 327 325 321 324 321 310 301 288 277 265 249 251 250 247 244 235 228 221 217 229 226 221 214 217 216 216 211 214 216 214 207 203 198 192 190 185 184 168 157 157 149 140 123 106 94 83 77
328 327 328 323 323 317 317 318 311 300 280 269 255 243 245 242 241 235 229 223 220 220 227 229 215 214 215 215 214 214 214 215 212 205 207 197 196 195 193 184 173 164 163 156 141 129 107 98 88
325 326 327 324 320 319 316 313 309 306 285 273 260 246 238 238 239 238 231 224 224 222 220 228 225 213 213 214 215 213 213 214 215 210 207 206 200 200 202 198 185 173 172 169 163 147 130 113 102
324 322 326 323 318 316 316 312 309 307 294 280 263 248 238 232 232 234 233 230 223 224 222 219 225 221 213 215 217 214 213 213 215 214 209 209 203 203 204 205 194 188 178 177 176 163 155 135 120
322 322 322 323 317 317 316 313 308 304 298 290 271 247 237 231 227 229 230 225 227 223 221 223 218 221 215 214 216 216 213 213 213 215 212 208 207 205 203 207 203 197 186 186 181 175 172 154 136
320 323 322 323 322 317 316 315 309 306 300 293 275 247 233 230 224 225 229 223 223 222 222 219 219 219 217 213 213 214 214 212 213 214 214 210 210 209 205 204 205 199 200 195 188 186 182 171 159
327 323 322 322 324 321 321 317 313 309 303 290 273 253 228 226 224 224 226 222 219 221 220 219 217 215 216 212 211 213 213 213 213 214 213 213 211 212 211 205 205 200 202 206 197 190 190 184 179
326 323 321 322 321 321 322 319 315 312 301 288 267 253 232 220 220 221 223 223 218 218 218 219 217 216 216 217 211 212 212 214 215 214 214 214 213 212 213 212 206 202 201 206 208 198 194 192 192
328 325 322 323 324 324 324 323 320 313 301 283 266 255 239 226 220 218 220 224 217 215 216 218 217 215 215 215 218 212 210 214 214 216 214 214 214 212 213 214 212 206 202 205 208 208 200 199 197
328 327 325 323 325 327 327 326 325 319 299 280 257 247 238 224 223 215 217 218 221 212 214 214 219 214 208 206 220 217 212 215 216 216 217 215 215 214 213 214 215 210 205 206 211 209 206 206 203
330 330 326 326 329 329 332 332 328 325 308 271 261 245 236 227 223 221 215 215 219 215 212 213 215 217 214 212 214 217 213 213 217 220 219 217 217 216 215 214 215 213 206 207 213 214 211 208 208
332 331 329 327 330 332 337 334 331 330 314 266 256 244 238 226 226 224 217 217 215 215 210 212 213 214 216 210 217 202 216 212 213 217 222 219 219 218 217 217 215 214 209 209 214 218 217 213 212
336 333 330 329 332 334 339 338 332 337 327 287 259 247 235 228 223 225 221 214 213 215 211 210 212 206 208 208 210 216 209 213 212 214 221 221 220 222 219 219 219 216 211 212 213 218 221 219 217
339 335 331 330 333 334 338 341 335 339 339 299 266 245 237 230 225 222 221 213 214 212 212 212 214 210 214 213 214 218 199 209 209 217 215 220 221 222 223 219 219 218 216 213 214 217 220 221 221
338 338 334 331 333 335 338 347 337 341 343 316 279 255 241 233 228 225 221 215 214 206 203 205 208 207 209 204 207 212 220 214 209 218 223 216 219 217 222 222 220 219 219 216 216 218 221 222 222
336 338 337 331 332 335 337 349 335 341 344 331 302 270 258 244 230 227 223 219 205 206 205 209 207 206 209 213 211 211 212 206 207 207 221 217 221 221 220 222 222 222 222 219 218 219 221 222 222
337 337 337 333 331 334 337 345 342 340 344 334 312 293 281 252 236 228 225 220 209 207 212 211 208 207 205 203 210 204 214 216 213 201 202 223 217 220 220 221 222 224 226 223 221 222 223 225 225
335 337 336 334 332 336 337 343 343 343 345 346 319 302 293 263 240 229 226 222 216 209 204 206 205 210 208 202 211 214 208 206 211 205 208 211 218 218 220 220 221 222 225 225 224 226 226 227 228
333 336 334 334 333 335 336 340 341 346 345 348 333 305 289 288 259 232 227 225 220 214 212 207 207 205 210 208 211 210 209 215 213 219 212 204 221 218 217 221 221 222 226 224 224 225 228 231 232
333 335 333 335 334 334 335 343 340 345 346 346 345 313 292 283 276 257 235 227 222 218 210 213 212 206 212 206 209 213 208 209 211 208 197 208 216 220 217 219 221 223 226 226 225 223 226 230 233
334 333 333 332 333 335 331 343 339 343 345 346 344 327 295 279 277 272 255 241 227 221 214 209 211 210 210 209 212 211 211 210 211 214 214 224 218 223 218 219 219 222 226 228 228 228 228 229 231
332 331 331 330 331 335 333 340 338 343 344 344 345 338 308 284 275 278 276 259 238 224 219 215 209 209 211 209 211 210 210 209 211 214 214 216 209 211 217 219 217 220 222 224 225 224 225 227 230
330 330 329 329 331 334 334 336 338 342 342 342 342 343 328 288 277 278 276 276 261 231 221 219 214 210 210 210 208 207 207 212 212 213 215 216 216 220 217 222 217 220 220 222 224 225 225 228 230
330 328 328 328 330 333 334 336 339 339 339 341 341 341 337 305 278 278 275 277 277 250 226 219 217 215 214 212 212 213 215 213 213 215 216 214 211 232 234 236 234 224 219 223 223 225 225 227 230
328 326 327 328 329 331 332 333 337 336 337 339 339 339 338 325 281 272 274 275 276 268 235 221 218 216 211 208 206 210 212 208 212 212 214 214 222 221 225 225 212 213 213 220 224 224 233 228 231
324 325 324 325 326 327 329 334 335 332 336 337 336 336 337 333 303 272 271 271 275 275 253 227 218 217 212 207 205 206 203 209 210 209 215 218 219 220 224 232 221 228 228 221 226 222 227 217 230
321 323 322 321 323 324 326 332 332 331 333 334 334 334 333 334 323 278 270 276 274 273 268 237 221 216 216 211 206 205 206 207 213 213 214 215 220 217 226 241 239 242 232 224 238 221 243 222 228
317 321 318 321 321 322 325 329 326 328 331 332 331 332 331 333 332 302 269 270 277 269 270 249 228 218 216 213 211 204 208 205 207 213 216 218 218 221 215 228 225 225 217 225 229 240 225 221 228
315 318 316 316 320 318 321 328 322 325 327 329 328 330 330 329 331 319 276 270 275 273 266 254 234 223 217 213 214 210 208 204 204 211 211 215 213 217 213 221 223 225 224 226 231 234 238 233 235
312 315 314 315 318 316 316 329 316 320 325 326 325 327 327 328 328 324 287 271 280 275 263 257 246 229 218 217 215 212 211 205 207 208 207 211 214 211 216 220 224 227 224 224 223 229 226 228 225